EHI
0 1 2 3 2 3 3 3 2 2 3 4 4 3 1 0 0 0 0 0 0 0 0 1 1 1 0 1 2 2 1 0 0 0 0 0 0 0 0 0 0 0 0
0 0 1 2 1 1 2 2 1 1 1 1 2 1 0 0 0 1 1 0 0 0 0 1 1 0 0 1 1 1 1 1 0 0 0 0 0 0 0 0 0 0 0
0 0 0 1 1 1 1 0 0 0 0 0 0 0 0 0 0 1 1 0 0 0 0 1 0 0 1 1 1 1 1 1 0 0 0 0 0 0 0 0 0 0 0
0 0 1 2 2 1 0 0 0 0 0 0 0 0 0 0 0 1 1 0 0 0 0 0 0 0 1 2 2 1 1 1 0 0 0 0 0 0 0 0 0 0 0
0 0 1 2 1 0 0 0 0 0 0 0 0 0 0 0 0 0 0 0 0 0 0 0 0 0 0 1 1 1 0 0 0 0 0 0 0 0 0 0 0 0 0
0 0 1 2 1 0 0 0 0 0 0 0 0 0 0 0 0 0 0 0 0 0 0 0 0 0 0 0 0 0 0 0 0 0 0 0 0 0 0 0 0 0 0
0 0 1 2 1 0 0 0 0 0 0 0 0 0 0 0 0 0 0 0 0 0 0 0 0 0 1 0 0 0 0 0 0 0 0 0 1 0 0 0 0 0 0
0 0 1 1 1 0 0 0 0 0 0 0 0 0 0 0 0 0 0 0 0 0 0 0 0 0 0 0 0 0 0 0 0 0 0 0 1 0 0 0 0 0 0
0 0 0 0 0 0 1 0 0 0 0 0 0 0 0 0 0 0 0 0 0 0 0 0 0 0 0 0 0 0 0 0 0 0 0 0 1 0 0 0 0 0 0
0 0 0 0 0 0 0 0 0 1 0 0 0 0 0 0 0 0 0 0 0 0 0 0 0 0 0 0 0 0 0 0 0 0 0 0 0 0 0 0 0 0 0
0 0 0 0 0 0 0 0 0 0 0 0 0 0 0 0 0 0 0 0 0 0 0 0 0 0 0 0 0 0 0 0 0 0 0 0 0 0 0 0 0 0 0
0 0 0 0 0 0 0 0 0 0 0 0 0 0 0 0 0 0 0 0 0 0 0 0 0 0 0 0 0 0 0 0 0 0 0 0 0 0 0 0 0 0 0
0 0 0 0 1 0 0 0 0 0 0 0 0 0 0 0 0 0 0 0 0 0 0 0 0 0 0 0 0 0 0 0 0 0 0 0 0 0 0 0 0 0 0
0 0 0 0 0 0 0 0 0 0 0 0 0 0 0 0 0 0 0 0 0 0 0 0 0 0 0 0 0 0 0 0 0 0 0 0 0 0 0 0 0 0 0
0 0 0 0 0 0 0 0 0 0 0 0 0 0 0 0 0 0 0 0 0 0 0 0 0 0 0 0 0 0 0 0 0 0 0 0 0 0 0 0 0 0 0
0 0 0 0 0 0 0 0 0 0 0 0 0 0 0 0 0 0 0 0 0 0 0 0 0 0 0 0 0 0 0 0 0 0 0 0 0 0 0 0 0 0 0
0 0 0 0 0 0 0 0 0 0 0 0 0 0 0 0 0 0 0 0 0 0 0 0 0 0 0 0 0 0 0 0 0 0 0 0 0 0 0 0 0 0 0
0 0 0 0 0 0 0 0 0 0 0 0 0 0 0 0 0 0 0 0 0 0 0 0 0 0 0 0 0 0 0 0 0 0 0 0 0 0 0 0 0 0 0
0 0 0 0 0 0 0 0 0 0 0 0 0 0 0 0 0 0 0 0 0 0 0 0 0 0 0 0 0 0 0 0 0 0 0 0 0 0 0 0 0 0 0
0 0 0 0 0 0 0 0 0 0 0 0 0 0 0 0 0 0 0 0 0 0 0 0 0 0 0 0 0 0 0 0 0 0 0 0 0 0 0 0 0 0 0
0 0 0 0 0 0 0 0 0 0 0 0 0 0 0 0 0 0 0 0 0 0 0 0 0 0 0 0 0 0 0 0 0 0 0 0 0 0 0 0 0 0 0
0 0 0 0 0 0 0 0 0 0 0 0 0 0 0 0 0 0 0 0 0 0 0 0 0 0 0 0 0 0 0 0 0 0 0 0 0 0 0 0 0 0 0
0 0 0 0 0 0 0 0 0 0 0 0 0 0 0 0 0 0 0 0 0 0 0 0 0 0 0 0 0 0 0 0 0 0 0 0 0 0 0 0 0 0 0
0 0 0 0 0 1 0 0 0 0 0 0 0 0 0 0 0 0 0 0 0 0 0 0 0 0 0 0 0 0 0 0 0 0 0 0 0 0 0 0 0 0 0
0 0 0 0 0 1 1 1 0 0 0 0 0 0 0 0 0 0 0 0 0 0 0 0 0 0 0 0 0 0 0 0 0 0 0 0 0 0 0 0 0 0 0
1 1 1 0 0 1 2 2 1 0 0 0 0 0 0 0 0 0 0 0 0 0 0 0 0 0 0 0 0 0 0 0 0 0 0 0 0 0 0 0 0 0 0
Wind_Speed
7 8 9 9 10 11 11 11 11 11 11 10 10 10 9 8 8 7 7 6 6 6 5 5 5 5 5 5 4 4 5 4 4 4 3 3 3 3 2 2 2 1 4
9 9 10 9 10 11 11 11 11 11 10 10 10 9 9 8 7 6 6 5 5 5 5 5 5 5 5 5 4 4 5 5 5 4 2 2 3 2 1 2 4 4 3
10 10 10 10 11 11 11 11 11 11 10 9 9 10 8 8 7 6 5 5 5 5 5 5 4 4 5 5 4 4 5 5 4 3 4 1 3 3 1 1 2 3 2
10 10 10 11 11 12 12 12 12 11 10 9 9 9 8 8 7 6 5 5 5 5 5 5 4 4 4 4 4 4 4 4 4 4 3 2 2 5 1 1 1 2 2
10 10 12 11 12 12 12 12 11 11 10 10 10 9 8 7 7 6 5 5 5 5 5 4 4 4 4 4 4 4 3 3 2 5 3 2 2 4 2 1 1 2 2
10 11 12 11 12 12 12 12 11 11 10 10 9 8 7 7 7 6 5 5 5 4 4 4 4 4 4 4 3 3 3 2 5 1 2 2 2 4 3 2 1 1 1
11 11 12 11 12 11 11 11 11 10 10 9 8 8 7 6 6 5 5 5 4 4 4 4 4 3 3 3 3 3 2 3 3 1 1 2 4 5 3 2 1 1 1
11 11 11 12 11 11 10 10 10 9 9 8 8 8 7 6 6 5 5 5 4 4 4 3 3 4 3 3 3 3 2 5 2 2 1 2 5 5 3 1 1 1 1
10 10 9 10 11 11 10 9 9 9 8 8 7 7 7 6 6 5 5 5 4 4 4 3 3 3 3 3 3 3 2 4 4 1 1 2 5 4 3 2 1 1 1
9 8 8 8 7 8 9 9 8 8 7 7 6 6 4 3 4 3 3 6 5 4 4 4 3 3 3 3 3 2 2 5 2 1 1 4 5 4 4 2 1 1 1
8 7 7 7 7 6 7 8 7 7 6 4 5 4 1 2 3 2 9 7 5 5 5 4 3 2 2 2 1 2 4 2 1 1 2 7 5 4 4 2 1 1 1
8 8 6 7 7 6 5 5 4 4 4 3 4 3 3 3 4 4 6 4 4 3 2 3 2 4 6 1 3 5 2 1 1 0 3 6 4 3 3 2 2 1 1
8 7 6 6 6 5 4 3 3 3 2 3 4 3 3 2 2 2 2 2 2 1 2 1 3 1 1 2 2 1 1 2 1 1 4 6 4 3 3 3 3 2 2
7 7 6 5 5 5 4 4 3 2 2 3 3 5 3 2 2 3 2 3 2 2 3 2 2 2 2 2 2 2 1 1 1 1 4 5 4 4 3 3 3 2 2
7 6 6 5 5 5 4 2 3 3 3 4 3 3 4 3 3 3 2 2 3 3 2 2 2 3 2 3 2 2 2 1 1 1 3 5 4 4 4 4 3 3 3
7 6 6 5 4 4 4 3 3 3 3 3 3 3 4 3 3 2 3 3 3 3 3 2 2 2 2 2 2 2 2 2 1 1 1 4 4 3 3 3 3 3 3
6 6 6 5 5 4 4 4 3 2 3 3 3 4 4 4 3 3 3 3 3 3 2 3 3 2 2 1 1 1 1 2 2 2 1 1 2 4 3 3 3 3 4
7 6 7 5 5 5 4 4 3 2 3 3 3 3 4 4 4 3 3 3 3 3 2 2 2 2 2 2 2 1 1 1 2 2 1 1 1 1 4 4 3 4 4
7 7 7 6 6 6 5 4 3 3 3 2 3 3 4 4 4 4 3 3 3 3 3 3 3 3 2 2 2 1 2 2 2 2 2 2 2 1 1 4 3 2 3
7 7 7 7 6 6 4 4 3 3 2 2 3 3 4 4 4 4 3 4 3 3 3 3 3 2 2 2 1 2 2 2 2 3 3 2 2 2 2 2 0 3 3
8 7 7 7 7 5 4 3 2 2 2 2 3 3 3 4 4 4 3 4 4 3 3 3 3 3 2 2 1 1 2 2 3 3 2 2 3 3 2 2 2 2 1
8 7 8 7 7 6 3 2 2 2 1 2 2 2 3 4 4 3 4 3 3 3 3 4 3 3 3 3 2 1 0 2 2 3 2 3 3 2 2 2 3 2 3
8 8 6 7 7 5 5 3 3 3 2 2 2 2 3 3 3 4 4 4 3 3 3 4 4 4 3 3 4 3 2 2 1 2 3 3 3 3 2 3 3 3 3
9 8 8 8 7 6 6 4 4 2 2 2 1 2 2 2 3 3 4 4 4 3 3 3 4 3 3 2 2 3 3 3 2 1 2 3 3 3 4 3 3 3 3
9 8 7 7 6 6 5 4 3 2 2 2 1 2 1 2 2 3 3 3 3 3 4 4 4 4 3 3 3 2 2 1 2 2 2 2 2 3 4 4 3 3 3
8 7 7 7 6 5 5 5 4 3 2 2 2 2 1 2 2 3 2 2 3 3 3 3 3 3 3 3 3 3 3 2 3 2 2 2 2 3 3 3 3 3 3
Wind_Direction
123 117 116 116 112 110 107 106 107 107 109 108 106 104 102 99 97 95 90 86 82 80 77 74 69 69 67 65 66 64 61 56 54 54 56 61 58 58 57 38 311 120 67
121 117 116 113 110 108 106 105 105 107 107 105 103 98 95 95 92 88 89 86 81 78 74 67 64 62 62 62 59 57 55 50 48 41 25 140 107 67 61 29 348 25 44
121 119 122 114 114 110 107 106 105 103 102 102 100 96 93 90 88 83 78 80 76 71 70 64 57 54 55 55 52 50 49 41 38 19 275 227 113 98 69 46 19 15 15
119 119 113 114 112 109 108 106 104 102 100 98 96 95 91 86 84 80 71 67 64 60 57 54 50 46 45 46 44 45 48 41 31 299 265 39 45 80 52 31 4 358 352
117 114 110 114 112 109 108 105 103 100 97 96 95 92 88 85 82 76 69 64 59 54 50 46 43 41 36 37 38 37 36 36 326 275 14 16 27 56 20 354 348 344 344
118 113 111 113 110 107 106 105 103 100 97 94 91 88 85 81 75 67 60 57 53 50 49 45 38 37 31 30 31 30 27 357 268 339 4 359 33 44 5 351 341 326 338
119 114 113 110 109 107 105 103 100 97 94 92 88 85 79 74 69 61 53 49 45 41 37 38 33 29 24 24 21 20 16 313 294 336 336 14 36 11 355 359 321 319 358
119 118 115 112 107 105 104 100 96 94 92 87 81 75 69 62 57 52 46 43 43 40 37 35 31 30 22 15 13 16 4 303 271 310 339 34 35 355 355 19 18 38 45
119 119 119 122 121 115 103 98 96 91 86 82 76 70 63 57 51 45 41 39 39 40 37 32 31 27 22 18 24 26 16 316 298 310 309 49 36 0 1 32 62 58 43
120 120 121 117 116 116 113 102 96 89 83 80 76 66 59 89 90 64 59 50 34 35 35 30 30 27 20 26 25 15 312 260 288 295 316 60 36 6 7 26 72 70 52
121 122 120 118 114 109 107 110 115 106 95 115 110 98 257 45 58 87 52 43 35 36 36 31 24 2 290 162 99 290 257 276 9 322 13 45 18 6 1 16 54 75 56
134 131 130 127 124 120 113 114 107 97 92 70 58 56 33 41 35 25 94 66 53 41 89 57 321 246 255 211 154 222 249 260 262 26 68 48 13 6 8 28 42 63 57
135 134 134 132 129 123 119 108 89 83 83 72 53 54 32 33 46 29 43 106 80 326 20 97 243 308 337 22 329 308 353 320 326 17 72 51 18 13 24 35 44 47 38
140 140 138 138 133 128 117 109 107 92 77 64 48 40 38 36 23 35 23 21 8 26 13 350 342 10 353 359 341 0 37 318 349 28 73 59 30 21 21 24 35 34 17
145 146 139 145 138 127 110 111 107 88 67 73 52 34 41 29 30 32 30 21 8 11 11 358 343 22 2 10 5 9 10 12 5 23 91 87 50 30 26 28 24 20 7
153 150 142 150 140 138 133 130 99 88 84 59 52 40 35 34 28 13 27 27 17 9 8 348 13 5 354 18 7 18 355 3 19 21 39 116 110 63 35 29 19 11 1
155 152 140 144 144 141 127 110 95 83 70 61 51 36 39 34 24 25 18 25 17 6 1 359 19 354 7 22 36 25 27 2 360 17 27 2 117 126 90 39 23 16 5
160 149 138 147 146 134 125 118 101 84 71 64 57 39 33 33 32 28 20 19 10 3 5 14 358 4 23 19 23 19 46 48 11 22 26 53 24 31 113 83 45 26 6
156 150 146 147 143 135 128 122 108 90 75 67 59 46 31 31 27 38 27 12 15 14 12 10 23 0 21 20 29 39 37 43 26 17 33 32 43 14 36 111 115 58 27
156 152 147 144 143 138 138 130 115 98 90 74 62 50 31 26 31 34 34 27 23 28 21 27 42 30 20 2 22 52 48 51 49 31 22 30 23 20 17 26 67 118 82
159 155 148 152 149 148 142 140 128 115 107 88 69 59 47 36 34 35 22 33 21 33 24 24 28 45 33 356 344 99 112 81 49 44 19 12 34 27 11 24 5 11 102
159 157 153 153 153 150 138 128 119 108 98 75 73 64 46 41 34 30 29 35 40 37 32 30 24 6 29 4 343 323 112 125 77 56 40 32 24 27 19 20 18 25 1
163 162 160 157 156 154 147 137 136 134 151 135 110 77 47 37 41 34 31 29 29 31 38 22 21 16 15 27 17 351 352 33 22 71 46 45 37 23 19 21 8 17 12
166 166 164 162 160 156 158 158 158 159 129 93 83 87 91 58 49 37 32 31 35 35 39 27 30 14 3 20 39 22 18 19 335 39 74 51 41 34 26 17 15 19 14
163 165 165 163 159 158 160 154 171 150 119 113 111 106 102 84 66 54 34 34 36 37 35 29 23 13 18 12 16 19 28 24 342 354 31 20 38 42 34 26 26 24 13
158 162 164 163 155 157 163 164 164 144 134 127 125 110 119 110 94 78 49 45 39 34 33 28 24 32 21 23 9 16 4 5 4 6 358 7 19 32 32 39 27 27 12